Location: Boulin
(43.2500°N, 0.1333°E)
Time: 01:47:09
(UTC+00:00)

Cosmos 1076 Rocket - Pass Details

Date: 11 December 2025
Orbit: 582 x 603 km, 82.5° (Epoch: 12 January)

Event Time Altitude Azimuth Distance (km) Brightness Sun altitude
Rises 17:39:27 0° 356° (N) 2,854 6.8 -13.2°
Reaches altitude 10° 17:41:44 10° 2° (N) 1,949 5.9 -13.6°
Maximum altitude 17:45:55 50° 78° (ENE) 767 3.6 -14.3°
Drops below altitude 10° 17:50:06 10° 155° (SSE) 1,941 6.0 -15.1°
Sets 17:52:22 0° 161° (SSE) 2,840 6.9 -15.5°
